Back to catalog

STARLINK-36773

AliveCommunicationsSSO
NORAD 67801·PAYLOAD·🇺🇸 United States

Launched Feb 15, 2026 from Vandenberg Space Force Base

Loading…

Next Passes (next 24 hours)

TLE

FreshSource: CelesTrak SupGP

Epoch: Sep 14, 2026, 23:08 UTC

1 67801C 26032E   26257.96437500  .00063688  00000+0  19766-2 0  2579
2 67801  97.2852  84.3798 0001849  96.4943 220.4887 15.33412771    19

Track STARLINK-36773 in real time with AllMySat

Download on the App Store